Regional Weather Roundup
Issued by NWS

Home | Current Version | Previous Version | Graphics & Text | Print | Product List | Glossary On
Versions: 1 2 3 4 5 6 7 8 9 10 11 12 13 14 15 16 17 18 19 20 21 22 23 24 25 26 27 28 29 30 31 32 33 34 35 36 37 38 39 40 41 42 43 44 45 46 47 48 49 50
000
ASUS43 KFSD 200610
RWRSD

WEATHER ROUNDUP FOR SOUTH DAKOTA
NATIONAL WEATHER SERVICE SIOUX FALLS SD
1200 AM CST SAT DEC 20 2014

NOTE: "FAIR" INDICATES FEW OR NO CLOUDS BELOW 12,000 FEET WITH NO
SIGNIFICANT WEATHER AND/OR OBSTRUCTIONS TO VISIBILITY.


SDZ001>005-009-010-012>017-200700-
NORTHWEST AND NORTH CENTRAL SOUTH DAKOTA

CITY           SKY/WX    TMP DP  RH WIND       PRES   REMARKS
BUFFALO          N/A     31  21  66 W6        29.83S WCI  25
FAITH            N/A     28  21  75 S9        29.92R WCI  19
MOBRIDGE       CLEAR     21  18  88 SE7       29.93R WCI  12
$$

SDZ012>016-024>037-041>051-057-063-072>074-200700-
SOUTHWEST AND SOUTH CENTRAL SOUTH DAKOTA

CITY           SKY/WX    TMP DP  RH WIND       PRES   REMARKS
RAPID CTY ARPT CLEAR     21  16  81 CALM      29.91S
PIERRE         FOG       14  12  92 CALM      29.96S VSB 1/2
CUSTER         PTCLDY    25  15  66 CALM      29.89F
ELLSWORTH AFB  CLEAR     26  18  73 W7        29.90S WCI  18
PHILIP         CLEAR     23  19  85 W5        29.95S WCI  17
PINE RIDGE     CLEAR     16  11  80 NW5       29.96R WCI   9
SPEARFISH      FAIR      32  18  55 S3        29.90S
WINNER         FAIR      27  20  75 SW6       29.98R WCI  20
$$

SDZ004>011-016>023-039-040-200700-
NORTHEAST SOUTH DAKOTA

CITY           SKY/WX    TMP DP  RH WIND       PRES   REMARKS
ABERDEEN       CLOUDY    29  25  85 S14       30.01S FOG     WCI  18
WATERTOWN      CLOUDY    29  27  92 S13       30.01S FOG     WCI  19
SISSETON         N/A     30  28  92 SW10      30.01F WCI  21
$$

SDZ017-020-022-023-036>040-048>070-200700-
SOUTHEAST SOUTH DAKOTA

CITY           SKY/WX    TMP DP  RH WIND       PRES   REMARKS
SIOUX FALLS    CLOUDY    31  28  89 S10       30.06F WCI  22
HURON          CLOUDY    28  26  92 S8        30.02F FOG     WCI  20
CHAMBERLAIN    CLOUDY    16  14  93 E3        30.00R FOG
MITCHELL       CLOUDY    29  28  96 S9        30.05S FOG     WCI  20
YANKTON        CLOUDY    32  28  86 S3        30.07S
$$

ABBREVIATIONS USED IN REMARKS
   TC - TEMPERATURE IN CELSIUS
  WCI - WIND CHILL INDEX
   HX - HEAT INDEX
  VSB - VISIBILITY




USA.gov is the U.S. government's official web portal to all federal, state and local government web resources and services.